Погода Ртищево

Погода Ртищево : погода сейчас, прогноз погоды и архив. Всё, что Вы хотите узнать о погоде Ртищево!

Хотите узнать прогноз погоды Ртищево? Тогда Вам сюда: Погода Ртищево

Поиск расширенной информации на нашем сайте:

Полезная информация: Мебель фабрики свобода в москве свобода мебель москва.

Другие новости

Новости СМИ2

Главная страница сайта

Новости сайта

03.07.2017

Напоминаем, что на нашем специализированном сайте Метеоцентр.Азия вы можете получить высокодетализированные автоматические прогнозы погоды по пунктам России, СНГ и мира в авиационном формате (включающие направление и скорость ветра, видимость, явления погоды, количество и форму облачности, нижнюю и верхнюю границу облачности).

Рекомендуем: Кадров смотреть онлайн бесплатно новые серии.

Погода Ртищево - сегодня

Время (UTC), дата Ветер
(°,м/с) 
Видим.   Явления Облачность Т
(°С)
Тd
(°С)
f(%) Тe
(°С)
Pmin
(гПа)
dP
(гПа)
Po
(мм)
O2
(г/м3)
Тmin Tmax R s Состояние
почвы
18 24.07.17 тихо ()   4000 м    6/0 верхняя 
[Ci fib]
+14.4 +11.8 84 +18  1013.2  741  281           
21 24.07.17 тихо ()   4000 м    3/0 верхняя 
[Ci fib]
+12.3 +10.4 88 +14  1013.4  0.1  741  284           
00 25.07.17 тихо ()   4000 м    3/0 верхняя 
[Ci fib]
+10.3 +9.3 94 +11  1013.4  -0.2  741  286           
03 25.07.17 тихо ()   10 км    3/0 верхняя 
[Ci fib]
+13.4 +11.5 88 +17  1012.8  -0.3  741  282  +9.6        сухая 
06 25.07.17 250 (З) 10 км    4/0 
+21 +12.7 59 +26  1012.2  0.2  741  275           
09 25.07.17 220 (ЮЗ) 10 км    5/4 600 м средняя 
[Cu hum|Ac trans]
+24 +10.3 42 +26  1011.2  -0.8  740  272           
12 25.07.17 350 (С) 10 км    4/4 600 м 
[Cu hum]
+23 +10.7 46 +25  1010.5  -0.8  740  273           
15 25.07.17 380 () 10 км    3/3 600 м 
[Cu hum]
+22.9 +12.4 52 +28  1009.9  -0.6  739  272    +24.5       
18 25.07.17 тихо ()   4000 м    1/0 верхняя 
[Ci fib]
+14 +11 82 +17  1010.7  739  281           
21 25.07.17 тихо ()   4000 м    ясно 
+13.7 +11.9 89 +18  1010.8  0.1  739  281           
00 26.07.17 тихо ()   4000 м    8/0 средняя 
[Ac trans]
+12.2 +10.5 89 +14  1011  0.1  739  283           
03 26.07.17 040 (СВ) 10 км    3/0 верхняя 
[Ci fib]
+13.8 +12.1 89 +19  1011.1  0.2  740  281  +11        сухая 
06 26.07.17 080 (В) 10 км    3/0 средняя, верхняя 
[Ac trans|Cc]
+22.9 +12.8 53 +28  1010.2  -0.1  739  272           
09 26.07.17 060 (СВ) 10 км    5/5 1000 м 
[Cu hum]
+25.1 +11.5 43 +29  1009.9  -0.1  739  271           
12 26.07.17 тихо ()   10 км    4/3 1000 м верхняя 
[Cu hum|Ci fib]
+26.6 +13.8 45 +34  1009.3  -0.5  739  269           
15 26.07.17 110 (В) 10 км    8/0 верхняя 
[Ci fib]
+26.7 +13.1 43 +33  1008.5  -0.8  738  268    +27.2       
18 26.07.17 060 (СВ) 4000 м    ясно 
+21.7 +14.6 64 +30  1009.4  0.5  739  273           
21 26.07.17 130 (ЮВ) 4000 м    5/5 600 м 
[Cu hum]
+19.4 +13.2 67 +26  1009.9  0.3  739  275           
00 27.07.17 110 (В) 4000 м    4/4 600 м 
[Cu hum]
+18.3 +12.6 69 +24  1010.2  0.2  739  277           
03 27.07.17 140 (ЮВ) 10 км    8/3 600 м кучево-дожд., верхняя 
[Cb cap|Ci fib]
+17.8 +13.2 74 +24  1010.3  739  277  +17.8        сухая 
06 27.07.17 160 (Ю) 10 км    10/3 600 м средняя, верхняя 
[Cu hum|Ac trans|Ci]
+22.8 +14.3 59 +31  1009.8  739  272           
09 27.07.17 170 (Ю) 10 км    6/0 средняя, верхняя 
[Ac trans|Ci fib]
+28.7 +18.1 53 +44  1009.1  -0.2  739  265           
12 27.07.17 260 (З) 10 км    3/3 600 м 
[Cu hum]
+31.9 +16.4 39 +44  1008.5  -0.4  739  263           
15 27.07.17 тихо ()   10 км    4/0 средняя, верхняя 
[Ac trans|Ci fib]
+30.1 +19.2 52 +48  1008  -0.5  738  263    +32.5       
18 27.07.17 160 (Ю) 4000 м    3/0 средняя 
[Ac trans]
+21.6 +19.4 87 +39  1008.9  0.1  738  271           
Время (UTC), дата Ветер
(°,м/с) 
Видим.   Явления Облачность Т
(°С)
Тd
(°С)
f(%) Тe
(°С)
Pmin
(гПа)
dP
(гПа)
Po
(мм)
O2
(г/м3)
Тmin Tmax R s Состояние
почвы

Для получения пояснительной информации подведите курсор к названию столбца.

ПОГОДА Ртищево - архив

Всё, что Вы хотите узнать о погоде Ртищево - удобно и подробно!

Выберите нужную дату (начиная с 1 января 2015* года) и нажмите кнопку "Найти".
Будут отображены архивные сводки погоды по пункту Ртищево, начиная с указанной даты.


Отображать данные в формате CSV (для использования в таблицах Excel)


Внимание! Наш архив погоды предназначен исключительно для личного некоммерческого использования в познавательных целях. Если Вам необходимы официальные справки о состоянии погоды (для производственных, юридических, коммерческих и т.п. целей), обращайтесь в органы Росгидромета.

*Примечание: данная дата относится к архиву по метеостанциям СССР (Россия, СНГ, Балтия).
Архив по метеостанциям Зарубежной Европы и Азии (кроме Китая) хранится 10 дней, по другим регионам земного шара (Китай, Африка, Америка, Австралия, Океания) - 1 день.

Ртищево - район местоположения метеостанции


Название, широта, долгота, высота метеостанции:
Ртищево 52.2°ш. 43.8°д. 213 м над ур. моря [Российская Федерация]

Дополнительная информация

В oтличие oт бoльшинства пoгoдных сайтoв мы публикуем пoдрoбную метеoинфoрмацию в детальнoм прoфессиoнальнoм фoрмате.

Характеристики температуры и влажнoсти вoздуха измеряются на высoте 2 м в тени вдали oт зданий и деревьев.
Скoрoсть ветра измеряется на высoте 10 м (на урoвне рoста челoвека скoрoсть ветра ниже в 1.5-2 раза). Если метеoстанция нахoдится в гoрoде или в лесу, тo скoрoсть ветра занижена на 2-4 м/с пo сравнению с oткрытым местoм. Скoрoсть ветра над акватoриями крупных рек и oзёр, а также на вершинах хoлмoв на 2-5 м/с выше, чем в oбычных услoвиях.
Атмoсфернoе давление в разных тoчках местнoсти мoжет значительнo oтличаться oт давления на метеoстанции, в зависимoсти oт услoвий рельефа (при пoдъёме на 10 м давление пoнижается примернo на 1 мм рт.ст.).